Volver al catálogo

DELTA 1 DEB

ActivoSSO
NORAD 8978·DEBRIS·🇺🇸 United States

Lanzado Jan 22, 1975 desde Vandenberg Space Force Base

Loading…

Próximos Pases (próximas 24 horas)

TLE

ActualizadoSource: Space-Track

Época: Sep 14, 2026, 04:52 UTC

1 08978U 75004BL  26257.20290966  .00001381  00000-0  15474-3 0  9991
2 08978  97.7840 327.0048 0024514 283.9039  75.9451 14.88252475680565

Sigue DELTA 1 DEB en tiempo real con AllMySat

Download on the App Store